Wind_Speed
11 11 11 11 13 17 12 9 7 7 7 7 5 4 3 2 2 1 1 2 2 3 4 5 6 7 6 6 6 6 6 6 7 7 8 8 9 9 9 9 9 9 8 8 8 8 8 8 8
10 9 9 11 14 13 10 9 8 8 7 6 5 4 4 2 1 0 0 1 1 2 4 4 5 6 6 5 5 5 5 5 5 6 6 7 8 8 8 8 8 8 8 8 8 7 7 7 7
8 8 8 12 14 11 9 8 8 8 7 6 6 5 5 4 2 1 1 1 1 2 3 4 4 5 6 5 5 5 5 5 5 6 6 6 7 7 7 7 7 6 6 6 6 6 6 6 6
7 7 10 12 9 7 7 7 7 8 8 7 6 5 5 4 3 2 1 1 1 2 3 4 4 5 5 5 5 5 5 5 5 5 5 5 5 5 5 6 6 5 5 6 6 6 6 5 5
6 6 9 9 6 5 6 6 7 7 7 8 7 6 6 5 4 3 2 1 1 2 4 4 4 5 5 5 5 5 5 5 5 5 5 4 4 4 4 5 5 5 5 5 5 5 5 5 5
3 6 9 6 3 4 8 6 5 5 6 8 8 7 6 5 5 4 3 1 0 1 2 3 4 4 5 5 5 5 5 6 5 5 4 3 3 3 3 4 4 4 4 4 4 5 5 4 4
2 4 7 3 2 6 8 6 5 6 5 7 7 5 5 6 5 4 3 2 0 1 1 3 4 4 5 5 5 5 6 6 5 5 4 4 3 3 3 3 4 3 3 4 4 4 4 4 4
2 2 7 3 3 7 9 7 6 6 5 6 8 7 7 6 5 5 4 2 1 1 2 3 4 5 5 6 6 6 6 6 6 6 5 4 3 3 2 3 3 3 3 3 4 4 4 4 3
4 3 6 3 3 8 10 7 6 6 6 6 7 7 7 6 5 5 4 3 2 2 2 2 4 5 6 6 7 6 7 7 6 6 5 5 3 3 3 2 2 2 2 2 3 3 3 3 3
6 5 4 3 6 8 9 7 6 7 9 7 6 6 7 6 6 5 5 4 3 3 3 3 4 5 6 6 7 7 7 7 6 6 5 5 4 3 4 3 3 2 2 2 2 2 3 3 2
8 6 6 6 8 9 7 7 7 8 11 10 5 6 7 7 6 6 5 5 4 4 4 4 4 5 6 6 7 8 8 7 7 7 6 5 5 4 4 3 2 2 2 2 2 2 3 3 3
9 8 8 9 10 10 8 7 8 9 12 12 9 6 7 7 6 6 6 5 5 5 4 4 5 5 6 7 7 8 8 8 8 7 7 6 6 5 4 3 2 3 2 2 3 3 3 2 2
12 10 10 11 11 11 10 9 10 10 12 12 10 8 8 7 7 7 7 7 6 6 5 5 5 5 6 7 8 8 8 9 9 8 7 7 6 6 5 5 3 3 3 3 3 3 2 2 2
13 13 12 12 12 12 11 10 11 10 12 12 11 10 9 8 8 8 7 7 7 7 6 6 6 6 6 7 7 8 9 10 10 9 9 8 7 7 7 6 5 4 4 4 4 4 3 2 2
15 15 14 12 12 12 11 10 10 11 13 14 13 11 11 10 9 9 9 9 9 9 8 7 6 6 7 7 8 8 9 10 11 10 10 9 8 8 8 7 6 5 5 5 4 4 3 2 2
17 15 14 12 12 13 12 11 12 14 14 15 14 12 11 10 10 10 10 10 10 9 9 8 7 7 7 8 9 9 9 10 11 12 11 10 9 8 9 8 8 7 7 6 5 4 4 3 3
17 15 13 12 14 15 13 12 14 14 14 16 16 14 12 12 11 11 11 11 10 10 9 9 8 7 7 8 8 8 10 10 11 12 12 11 11 10 9 9 9 8 8 7 6 6 5 4 4
15 13 13 13 16 17 14 13 15 14 14 17 17 15 13 12 12 11 11 11 11 10 10 10 9 8 8 8 8 8 9 10 11 12 12 12 12 12 10 10 10 10 9 9 8 8 7 6 5
18 16 15 15 19 20 17 15 16 15 16 18 17 16 15 14 13 12 12 12 12 11 11 10 9 9 9 9 9 9 9 10 11 11 12 13 13 13 12 12 12 11 11 11 10 9 8 7 6
23 21 19 19 21 21 19 17 16 17 18 18 18 17 17 16 15 13 13 13 13 13 12 11 11 11 10 10 10 10 10 10 10 11 13 14 14 15 14 13 13 12 12 12 12 11 10 9 8
25 23 21 20 21 21 20 18 17 17 18 18 18 18 17 16 15 13 13 13 13 13 13 13 12 12 11 11 11 11 11 11 10 11 12 14 15 15 15 15 14 13 13 13 13 13 12 11 10
25 23 22 22 22 21 19 17 18 19 20 19 18 18 17 17 16 14 13 14 14 14 14 12 13 13 13 12 12 11 12 12 12 12 12 14 14 14 15 16 16 15 14 14 14 14 13 13 12
24 23 23 23 23 21 20 19 19 21 21 18 17 18 17 17 16 15 14 14 14 14 13 13 14 14 14 14 13 13 13 12 12 12 13 14 15 15 15 17 17 17 16 16 16 15 15 14 13
24 24 24 23 23 23 20 19 20 21 21 19 16 16 17 17 16 15 14 14 14 13 13 14 14 15 15 14 14 14 14 14 13 13 14 14 15 15 15 16 17 18 18 17 17 17 16 15 15
26 25 23 22 21 20 16 19 21 22 22 19 16 16 17 16 16 15 14 14 14 14 14 15 15 15 15 15 14 14 14 14 14 14 14 15 15 16 16 16 17 18 19 19 18 18 18 17 16
26 25 22 17 15 14 16 20 21 21 21 19 17 17 17 17 18 17 15 14 15 15 15 16 16 16 16 15 15 14 14 14 14 14 15 15 16 16 17 17 17 18 19 20 20 20 19 19 18
25 25 21 19 15 14 16 19 21 21 20 20 18 17 17 17 18 16 15 15 15 15 16 16 16 16 16 15 15 14 14 14 14 15 16 15 16 16 17 17 18 18 19 20 21 21 21 21 21
25 23 24 25 21 19 19 21 21 20 18 18 17 17 17 17 16 15 15 16 16 16 16 17 17 16 16 16 15 15 15 15 15 16 16 16 16 17 17 18 19 19 19 21 21 21 22 22 22
26 26 25 24 22 19 19 20 18 20 18 17 17 17 16 16 17 16 16 16 16 16 16 16 16 16 16 15 15 15 15 14 15 15 15 16 15 15 17 18 19 19 19 20 21 21 22 22 22
25 26 26 27 25 22 20 19 18 18 18 15 16 16 16 17 17 16 16 16 16 15 16 16 16 16 16 15 15 15 15 15 15 16 15 15 16 17 17 17 18 18 19 20 20 20 21 21 22
Wind_Direction
78 77 77 79 71 64 59 38 13 13 18 21 18 8 16 17 29 45 75 121 138 148 149 158 166 161 161 165 171 167 162 160 156 147 139 133 129 123 121 117 112 109 105 103 99 97 97 98 97
80 77 76 69 62 56 49 27 9 10 11 13 6 354 350 1 8 349 90 133 163 162 162 164 169 170 171 175 181 181 177 175 166 156 147 140 134 127 124 119 115 111 108 104 101 99 100 100 99
86 81 68 60 54 37 25 11 4 4 5 5 358 355 342 344 340 319 288 190 190 183 176 176 177 177 180 186 191 194 192 190 178 166 156 146 139 133 126 120 117 114 111 109 106 105 104 103 103
92 89 82 69 55 32 1 352 357 358 1 2 1 357 345 341 339 334 320 254 214 200 191 185 185 184 187 193 198 203 202 198 188 177 167 155 145 139 132 126 123 119 114 112 110 109 109 108 109
102 94 82 79 56 13 335 341 355 354 4 356 357 360 353 348 342 337 332 297 248 223 204 198 199 197 195 197 205 213 212 206 199 189 179 167 154 145 139 133 129 124 119 112 110 112 114 114 113
102 83 72 66 47 324 324 337 346 346 354 343 348 354 1 359 352 347 342 331 279 230 208 205 203 201 200 203 212 221 220 216 208 203 197 184 166 158 146 139 134 127 123 121 119 117 120 120 119
127 96 82 50 346 305 310 323 323 320 333 336 334 340 6 0 354 350 348 348 355 214 217 214 215 210 210 215 220 223 225 225 220 219 219 210 192 180 161 151 141 134 128 126 127 129 129 129 127
172 153 117 114 283 287 296 308 309 309 315 323 324 337 354 354 355 348 348 351 341 277 243 234 225 217 217 220 227 230 229 230 231 229 231 233 225 211 182 163 150 141 134 132 132 140 141 137 137
197 166 113 117 246 273 288 297 298 294 291 308 317 335 344 344 350 351 348 351 341 306 275 256 237 226 223 226 230 237 235 235 237 234 237 242 244 221 201 186 166 155 147 148 147 146 154 150 146
207 188 132 203 225 254 275 286 278 289 293 293 309 333 335 340 339 343 345 343 335 325 299 274 249 231 228 232 234 239 239 238 239 240 243 244 242 229 214 202 201 189 167 155 158 153 152 155 157
215 209 187 220 243 244 258 274 278 277 278 281 297 329 331 336 336 337 339 338 331 324 308 282 260 240 234 239 240 241 241 240 239 239 243 246 243 241 227 227 225 215 202 181 161 150 153 165 168
225 221 221 227 243 250 244 255 263 268 275 285 296 320 321 324 322 326 332 333 331 323 314 298 276 255 243 245 247 243 243 245 243 245 243 247 254 246 237 237 240 225 219 199 184 176 176 173 161
233 232 236 240 244 249 249 251 260 259 270 283 293 311 314 309 309 312 320 325 330 329 318 304 289 267 251 250 248 245 241 242 243 246 246 246 252 256 253 246 247 249 237 222 208 194 186 190 189
236 238 241 247 249 252 251 247 253 258 269 276 288 298 301 298 301 305 308 316 324 328 318 307 292 270 256 254 253 248 246 242 244 245 246 249 250 252 255 253 252 259 252 234 220 204 196 191 194
240 241 245 251 254 254 255 252 250 253 263 272 281 288 290 292 296 299 305 311 317 320 316 309 298 276 262 262 260 255 250 248 247 246 245 247 248 252 254 253 255 257 253 244 227 208 209 207 210
242 244 249 256 258 255 254 250 249 247 255 266 275 279 281 286 291 297 300 305 310 315 314 306 302 286 275 271 268 267 259 255 252 246 246 246 245 249 252 251 254 256 254 250 239 225 225 223 226
241 246 252 257 253 255 256 250 253 250 251 261 271 274 275 282 285 292 299 303 306 309 309 304 302 295 284 283 276 270 265 261 257 249 247 247 246 247 248 250 252 255 257 253 244 236 234 235 235
237 251 255 252 253 258 257 250 256 255 258 267 271 270 273 278 281 287 296 301 304 302 300 299 299 298 287 288 285 277 274 267 261 253 246 244 244 245 247 248 250 254 255 252 246 241 240 240 242
222 230 236 240 241 251 257 249 252 252 253 261 264 267 273 275 278 283 290 296 299 298 296 298 295 295 289 285 283 276 274 272 266 259 251 246 243 244 247 250 249 253 254 250 247 242 243 245 248
223 226 226 234 243 249 253 251 248 251 252 258 262 262 265 269 272 279 285 289 291 293 292 292 291 295 290 284 280 276 273 271 265 258 254 248 246 248 250 249 249 251 251 247 245 243 243 246 251
226 229 228 233 242 249 250 253 254 253 253 258 261 263 263 267 271 275 281 284 285 287 287 286 287 293 293 284 281 277 274 274 268 261 254 246 244 247 249 250 249 249 248 246 244 243 246 249 254
230 229 229 232 239 248 250 253 257 257 258 259 261 264 264 267 272 276 279 281 283 282 282 281 284 289 291 287 284 278 274 272 267 260 258 252 248 247 247 249 249 249 247 244 241 241 246 250 253
230 229 230 233 238 240 243 249 253 257 259 256 257 259 263 266 270 273 275 277 281 278 278 281 285 287 288 288 286 280 277 273 270 263 261 258 254 251 251 251 249 248 245 243 241 242 246 249 253
226 228 230 233 239 243 239 244 250 255 261 255 254 258 261 266 270 269 271 274 278 275 278 282 285 285 286 284 282 278 276 275 273 265 258 258 257 254 254 254 250 248 246 244 242 243 245 248 253
225 225 228 233 240 249 246 244 247 253 257 254 256 260 261 267 270 270 271 272 276 275 280 282 282 283 285 285 283 277 275 273 270 265 259 257 256 256 253 251 251 250 248 246 245 245 247 250 254
226 225 224 228 245 251 243 240 243 251 256 258 252 256 260 263 266 267 269 271 273 276 281 281 280 281 283 284 282 278 273 269 268 265 261 257 256 257 254 253 251 250 250 248 247 247 250 253 256
222 219 215 217 222 242 245 237 240 248 256 262 261 259 260 263 260 263 266 269 271 275 280 281 279 281 282 282 280 276 274 271 267 265 262 263 260 258 255 256 250 250 250 247 247 249 251 252 256
218 216 210 213 221 232 241 245 245 252 257 260 260 258 258 264 264 265 266 269 271 275 279 280 278 278 278 279 278 275 271 270 269 266 264 262 262 260 258 255 252 252 251 248 249 250 252 252 254
213 211 211 216 220 227 241 241 238 245 250 255 260 257 258 263 266 265 265 266 269 273 278 281 278 277 276 275 275 273 272 269 266 265 265 261 261 261 260 260 257 254 253 251 251 252 252 253 255
215 214 213 215 218 218 235 244 240 239 247 256 261 260 260 262 265 265 266 269 269 272 275 278 277 277 274 273 275 275 272 268 264 264 264 262 263 263 260 260 259 255 253 251 250 250 252 253 254
Height
5893 5893 5893 5893 5891 5890 5891 5893 5892 5891 5890 5889 5888 5887 5886 5886 5886 5888 5886 5885 5886 5886 5886 5887 5887 5888 5889 5890 5890 5891 5891 5891 5891 5891 5891 5891 5892 5892 5892 5893 5893 5894 5894 5895 5896 5896 5896 5896 5897
5895 5895 5895 5893 5892 5892 5894 5894 5893 5892 5891 5890 5889 5888 5887 5887 5887 5886 5886 5886 5886 5887 5887 5887 5888 5889 5890 5891 5891 5892 5892 5893 5893 5893 5893 5893 5893 5893 5894 5894 5895 5895 5896 5896 5897 5897 5897 5898 5898
5896 5896 5896 5894 5894 5896 5897 5896 5895 5893 5892 5891 5890 5890 5889 5888 5888 5887 5887 5887 5887 5887 5888 5888 5889 5890 5890 5891 5892 5893 5893 5894 5894 5894 5894 5894 5894 5895 5895 5895 5896 5896 5897 5897 5898 5898 5899 5899 5899
5897 5897 5896 5897 5898 5899 5899 5898 5896 5894 5893 5892 5891 5890 5889 5889 5888 5888 5887 5887 5887 5888 5888 5888 5889 5890 5891 5892 5893 5894 5894 5894 5895 5895 5895 5895 5896 5896 5896 5896 5897 5898 5898 5898 5899 5899 5900 5900 5900
5897 5897 5896 5898 5900 5902 5900 5899 5897 5895 5894 5892 5892 5891 5890 5890 5889 5888 5888 5888 5888 5888 5888 5889 5890 5891 5891 5892 5893 5894 5895 5895 5896 5896 5896 5896 5897 5897 5897 5898 5898 5898 5899 5899 5900 5900 5901 5901 5901
5898 5897 5898 5899 5902 5903 5901 5899 5898 5896 5895 5893 5892 5892 5890 5890 5889 5889 5888 5888 5888 5888 5889 5889 5890 5891 5892 5893 5894 5894 5895 5896 5896 5897 5897 5897 5897 5898 5898 5898 5899 5899 5900 5900 5900 5901 5901 5902 5902
5899 5898 5899 5902 5903 5904 5902 5900 5899 5897 5896 5895 5893 5892 5891 5891 5890 5889 5889 5889 5889 5889 5889 5890 5890 5891 5892 5893 5894 5895 5895 5896 5897 5897 5898 5898 5898 5898 5899 5899 5900 5900 5901 5901 5901 5902 5902 5902 5903
5898 5899 5899 5903 5905 5905 5902 5900 5899 5898 5896 5896 5893 5893 5892 5892 5891 5890 5889 5889 5889 5889 5890 5890 5890 5891 5892 5893 5894 5895 5895 5896 5897 5898 5898 5898 5899 5899 5899 5900 5900 5901 5901 5901 5902 5902 5903 5903 5904
5898 5900 5899 5903 5906 5905 5902 5901 5900 5898 5896 5895 5893 5893 5893 5892 5891 5891 5890 5890 5890 5890 5890 5890 5891 5891 5892 5893 5893 5894 5895 5896 5897 5898 5898 5899 5899 5899 5900 5901 5901 5901 5902 5902 5902 5903 5903 5904 5904
5897 5898 5900 5903 5904 5903 5902 5901 5900 5898 5895 5893 5893 5894 5893 5893 5892 5891 5891 5890 5890 5890 5890 5890 5890 5891 5892 5892 5893 5894 5895 5896 5897 5898 5899 5899 5900 5900 5900 5901 5901 5902 5902 5903 5903 5903 5904 5904 5905
5895 5897 5898 5901 5901 5901 5901 5901 5900 5898 5894 5891 5891 5893 5893 5893 5892 5892 5891 5891 5890 5890 5890 5890 5890 5890 5891 5892 5893 5894 5895 5896 5896 5898 5898 5899 5899 5900 5901 5901 5902 5902 5903 5903 5904 5904 5904 5904 5905
5894 5895 5896 5898 5900 5899 5899 5899 5899 5898 5894 5891 5890 5892 5892 5893 5892 5892 5891 5891 5890 5889 5889 5889 5889 5890 5891 5891 5892 5893 5894 5895 5896 5897 5898 5899 5899 5900 5901 5902 5902 5903 5903 5903 5904 5904 5905 5904 5905
5891 5893 5894 5896 5896 5897 5897 5897 5897 5896 5895 5892 5890 5891 5892 5892 5892 5891 5891 5890 5890 5889 5889 5889 5889 5889 5890 5891 5891 5892 5893 5895 5895 5896 5897 5898 5899 5900 5901 5901 5902 5903 5903 5903 5904 5904 5905 5905 5906
5889 5890 5892 5893 5894 5894 5895 5896 5896 5895 5893 5892 5891 5891 5891 5891 5891 5891 5891 5890 5890 5889 5889 5888 5888 5889 5889 5890 5890 5891 5892 5893 5895 5896 5896 5898 5899 5900 5900 5901 5902 5903 5903 5904 5904 5905 5905 5906 5906
5885 5887 5889 5890 5891 5892 5893 5894 5894 5894 5893 5891 5890 5890 5890 5890 5890 5890 5890 5890 5889 5889 5888 5888 5887 5888 5888 5888 5889 5890 5891 5892 5894 5895 5896 5897 5898 5899 5900 5901 5902 5902 5903 5903 5904 5905 5905 5906 5906
5882 5884 5886 5888 5889 5890 5892 5893 5892 5892 5892 5890 5889 5889 5888 5889 5889 5889 5889 5888 5888 5888 5887 5887 5887 5887 5887 5887 5888 5889 5890 5891 5892 5893 5894 5895 5897 5898 5899 5900 5901 5902 5902 5903 5904 5905 5905 5906 5906
5878 5881 5884 5886 5887 5887 5889 5890 5889 5887 5889 5888 5887 5887 5887 5887 5888 5888 5887 5887 5887 5887 5886 5886 5886 5886 5886 5886 5886 5887 5888 5889 5890 5891 5892 5894 5895 5896 5897 5899 5900 5901 5902 5902 5903 5904 5904 5905 5906
5877 5880 5883 5885 5885 5885 5886 5887 5886 5886 5886 5886 5885 5884 5884 5885 5885 5885 5886 5885 5885 5885 5885 5885 5885 5885 5885 5885 5885 5885 5886 5887 5888 5889 5890 5892 5893 5895 5896 5897 5898 5899 5901 5902 5903 5903 5904 5905 5905
5873 5877 5880 5883 5882 5882 5883 5884 5884 5883 5884 5884 5883 5883 5882 5883 5883 5884 5884 5884 5884 5884 5884 5884 5884 5884 5883 5883 5883 5883 5884 5885 5885 5886 5888 5890 5891 5893 5894 5896 5896 5898 5899 5900 5901 5902 5903 5904 5905
5868 5871 5875 5878 5878 5879 5880 5880 5881 5881 5881 5881 5881 5880 5880 5880 5881 5882 5882 5882 5882 5882 5882 5882 5882 5882 5881 5881 5881 5881 5882 5882 5883 5884 5886 5887 5889 5890 5892 5894 5895 5896 5897 5898 5900 5901 5902 5903 5904
5863 5867 5871 5874 5874 5874 5876 5877 5878 5878 5878 5878 5878 5877 5877 5877 5878 5879 5879 5879 5880 5880 5880 5880 5880 5880 5879 5879 5879 5879 5879 5880 5881 5882 5883 5884 5886 5887 5889 5891 5892 5893 5894 5896 5898 5899 5900 5901 5902
5858 5863 5866 5869 5870 5871 5872 5874 5875 5874 5874 5875 5875 5874 5875 5875 5875 5876 5877 5877 5877 5877 5877 5877 5877 5877 5877 5876 5876 5876 5877 5877 5878 5879 5880 5882 5883 5884 5886 5888 5889 5890 5892 5893 5895 5896 5898 5899 5900
5854 5858 5861 5863 5865 5867 5869 5871 5872 5870 5870 5870 5871 5872 5872 5872 5872 5872 5873 5874 5874 5874 5874 5875 5874 5874 5874 5873 5873 5873 5874 5875 5875 5876 5877 5879 5880 5882 5883 5884 5886 5887 5889 5891 5892 5894 5895 5897 5898
5849 5853 5855 5858 5860 5862 5864 5867 5867 5866 5865 5865 5866 5868 5868 5868 5869 5869 5870 5870 5871 5871 5871 5872 5871 5871 5870 5870 5870 5871 5871 5872 5872 5873 5874 5875 5877 5878 5880 5881 5882 5884 5886 5888 5889 5891 5892 5893 5895
5844 5848 5852 5854 5855 5858 5861 5863 5863 5862 5861 5861 5862 5864 5865 5865 5865 5866 5867 5867 5867 5867 5868 5868 5868 5868 5867 5867 5867 5867 5868 5868 5869 5870 5871 5872 5874 5875 5876 5878 5879 5881 5882 5884 5886 5887 5889 5890 5891
5839 5844 5849 5852 5855 5857 5858 5858 5859 5858 5858 5858 5859 5861 5862 5862 5862 5862 5863 5864 5864 5864 5864 5864 5864 5864 5864 5864 5864 5864 5864 5865 5866 5866 5867 5869 5870 5872 5873 5874 5875 5877 5878 5880 5882 5884 5885 5886 5887
5834 5838 5845 5849 5852 5853 5853 5853 5853 5854 5855 5856 5857 5858 5859 5859 5858 5858 5860 5861 5861 5861 5861 5861 5861 5861 5860 5860 5860 5861 5861 5862 5862 5863 5864 5865 5867 5868 5869 5870 5871 5872 5874 5875 5877 5879 5881 5882 5883
5831 5835 5839 5843 5846 5849 5850 5849 5849 5850 5851 5853 5854 5855 5855 5855 5854 5855 5856 5857 5858 5858 5858 5858 5857 5857 5857 5857 5857 5857 5858 5858 5859 5860 5861 5862 5863 5864 5865 5865 5867 5868 5869 5871 5873 5874 5876 5877 5878
5826 5830 5835 5839 5842 5845 5846 5847 5843 5845 5847 5849 5851 5851 5852 5852 5853 5853 5853 5854 5855 5855 5855 5854 5854 5854 5854 5854 5854 5854 5854 5854 5855 5856 5857 5858 5859 5860 5860 5861 5862 5863 5864 5866 5867 5869 5871 5872 5873
5821 5826 5830 5834 5837 5839 5840 5842 5839 5840 5843 5845 5846 5847 5849 5849 5849 5850 5851 5851 5851 5851 5851 5851 5851 5851 5850 5850 5851 5851 5850 5851 5852 5853 5854 5854 5855 5856 5856 5857 5857 5858 5860 5861 5863 5864 5866 5867 5868